| time (UTC) | temp C | wind direction | speed KPH | gust KPH | rain 1hr cm | rain 24hr cm | rain mn cm | humidity % | barometer mb |
| 20260502112251 | 5 | 195 | 4.8 | 6.4 | 0.00 | 0.00 | 0.00 | 45 | 1021.4 |
| 20260502111223 | 5 | 148 | 4.8 | 4.8 | 0.00 | 0.00 | 0.00 | 46 | 1021.4 |
| 20260502110223 | 5 | 164 | 3.2 | 4.8 | 0.00 | 0.00 | 0.00 | 44 | 1021.3 |
| 20260502105217 | 5 | 229 | 4.8 | 8.0 | 0.00 | 0.00 | 0.00 | 46 | 1021.3 |
| 20260502104217 | 5 | 191 | 4.8 | 8.0 | 0.00 | 0.00 | 0.00 | 46 | 1021.3 |
| 20260502103237 | 5 | 235 | 4.8 | 6.4 | 0.00 | 0.00 | 0.00 | 45 | 1021.3 |
| 20260502102217 | 5 | 179 | 3.2 | 4.8 | 0.00 | 0.00 | 0.00 | 45 | 1021.3 |
| 20260502101217 | 5 | 205 | 3.2 | 4.8 | 0.00 | 0.00 | 0.00 | 46 | 1021.2 |
| 20260502100217 | 5 | 324 | 6.4 | 11.3 | 0.00 | 0.00 | 0.00 | 46 | 1021.2 |
| 20260502091218 | 5 | 135 | 4.8 | 6.4 | 0.00 | 0.00 | 0.00 | 47 | 1021.2 |
| 20260502090258 | 5 | 194 | 4.8 | 6.4 | 0.00 | 0.00 | 0.00 | 45 | 1021.2 |
| 20260502071228 | 5 | 256 | 3.2 | 4.8 | 0.00 | 0.00 | 0.00 | 46 | 1021.7 |
| 20260502070229 | 5 | 221 | 4.8 | 6.4 | 0.00 | 0.00 | 0.00 | 45 | 1021.8 |
| 20260502065248 | 5 | 176 | 6.4 | 8.0 | 0.00 | 0.00 | 0.00 | 45 | 1021.8 |
| 20260502064228 | 5 | 229 | 4.8 | 8.0 | 0.00 | 0.00 | 0.00 | 45 | 1021.9 |
| 20260502063248 | 6 | 254 | 4.8 | 9.7 | 0.00 | 0.00 | 0.00 | 44 | 1021.8 |
| 20260502062229 | 6 | 256 | 6.4 | 11.3 | 0.00 | 0.00 | 0.00 | 44 | 1021.7 |
| 20260502061229 | 6 | 314 | 4.8 | 9.7 | 0.00 | 0.00 | 0.00 | 44 | 1021.7 |
| 20260502060221 | 6 | 331 | 4.8 | 6.4 | 0.00 | 0.00 | 0.00 | 44 | 1021.8 |
| 20260502055222 | 6 | 186 | 4.8 | 6.4 | 0.00 | 0.00 | 0.00 | 44 | 1021.8 |
| 20260502054241 | 6 | 328 | 4.8 | 8.0 | 0.00 | 0.00 | 0.00 | 44 | 1021.8 |
| 20260502053222 | 6 | 278 | 4.8 | 8.0 | 0.00 | 0.00 | 0.00 | 43 | 1021.8 |
| 20260502052222 | 7 | 184 | 4.8 | 6.4 | 0.00 | 0.00 | 0.00 | 43 | 1021.7 |
| 20260502051222 | 7 | 320 | 4.8 | 4.8 | 0.00 | 0.00 | 0.00 | 43 | 1021.7 |
| 20260502050222 | 7 | 297 | 3.2 | 4.8 | 0.00 | 0.00 | 0.00 | 42 | 1021.7 |
| 20260502045222 | 7 | 339 | 4.8 | 4.8 | 0.00 | 0.00 | 0.00 | 42 | 1021.7 |
| 20260502044223 | 8 | 292 | 3.2 | 3.2 | 0.00 | 0.00 | 0.00 | 38 | 1021.7 |
| 20260502043217 | 8 | 303 | 6.4 | 6.4 | 0.00 | 0.00 | 0.00 | 39 | 1021.6 |
| 20260502042223 | 8 | 314 | 6.4 | 6.4 | 0.00 | 0.00 | 0.00 | 37 | 1021.6 |
| 20260502041223 | 7 | 298 | 3.2 | 3.2 | 0.00 | 0.00 | 0.00 | 37 | 1021.5 |
| 20260502040303 | 7 | 306 | 4.8 | 4.8 | 0.00 | 0.00 | 0.00 | 41 | 1021.4 |
| 20260502035223 | 7 | 277 | 6.4 | 8.0 | 0.00 | 0.00 | 0.00 | 39 | 1021.2 |
| 20260502034217 | 7 | 326 | 3.2 | 3.2 | 0.00 | 0.00 | 0.00 | 40 | 1021.1 |
| 20260502033223 | 7 | 311 | 4.8 | 6.4 | 0.00 | 0.00 | 0.00 | 40 | 1021.0 |
| 20260502032224 | 7 | 299 | 4.8 | 6.4 | 0.00 | 0.00 | 0.00 | 40 | 1020.8 |
| 20260502031218 | 7 | 303 | 6.4 | 8.0 | 0.00 | 0.00 | 0.00 | 40 | 1020.6 |
| 20260502030224 | 8 | 302 | 4.8 | 6.4 | 0.00 | 0.00 | 0.00 | 39 | 1020.7 |
| 20260502025218 | 8 | 310 | 6.4 | 8.0 | 0.00 | 0.00 | 0.00 | 38 | 1020.5 |
| 20260502024224 | 8 | 302 | 4.8 | 6.4 | 0.00 | 0.00 | 0.00 | 38 | 1020.3 |
| 20260502023244 | 8 | 285 | 6.4 | 6.4 | 0.00 | 0.00 | 0.00 | 37 | 1020.2 |
| 20260502022244 | 8 | 283 | 6.4 | 6.4 | 0.00 | 0.00 | 0.00 | 37 | 1020.0 |
| 20260502021225 | 9 | 306 | 3.2 | 3.2 | 0.00 | 0.00 | 0.00 | 35 | 1019.9 |
| 20260502020225 | 9 | 305 | 3.2 | 4.8 | 0.00 | 0.00 | 0.00 | 37 | 1019.8 |
| 20260502015245 | 10 | 301 | 1.6 | 3.2 | 0.00 | 0.00 | 0.00 | 34 | 1019.7 |
| 20260502014225 | 10 | 289 | 3.2 | 4.8 | 0.00 | 0.00 | 0.00 | 33 | 1019.6 |
| 20260502013225 | 11 | 264 | 1.6 | 1.6 | 0.00 | 0.00 | 0.00 | 30 | 1019.4 |
| 20260502012226 | 12 | 294 | 4.8 | 4.8 | 0.00 | 0.00 | 0.00 | 27 | 1019.3 |
| 20260502011226 | 12 | 289 | 3.2 | 3.2 | 0.00 | 0.00 | 0.00 | 26 | 1019.2 |
| 20260502010226 | 13 | 330 | 3.2 | 4.8 | 0.00 | 0.00 | 0.00 | 24 | 1019.0 |
| 20260502005226 | 13 | 5 | 3.2 | 4.8 | 0.00 | 0.00 | 0.00 | 23 | 1018.9 |
| 20260502004226 | 13 | 345 | 3.2 | 3.2 | 0.00 | 0.00 | 0.00 | 24 | 1018.9 |
| 20260502003247 | 13 | 344 | 1.6 | 1.6 | 0.00 | 0.00 | 0.00 | 24 | 1018.9 |
| 20260502002221 | 13 | 39 | 4.8 | 6.4 | 0.00 | 0.00 | 0.00 | 24 | 1018.8 |
| 20260502001227 | 14 | 25 | 4.8 | 6.4 | 0.00 | 0.00 | 0.00 | 24 | 1018.8 |
| 20260502000227 | 14 | 25 | 6.4 | 6.4 | 0.00 | 0.00 | 0.00 | 23 | 1018.7 |
| 20260501235247 | 14 | 60 | 3.2 | 3.2 | 0.00 | 0.00 | 0.00 | 23 | 1018.7 |
| 20260501234307 | 13 | 23 | 1.6 | 3.2 | 0.00 | 0.00 | 0.00 | 24 | 1018.6 |
| 20260501233228 | 13 | 335 | 3.2 | 3.2 | 0.00 | 0.00 | 0.00 | 24 | 1018.7 |
| 20260501232222 | 13 | 36 | 4.8 | 6.4 | 0.00 | 0.00 | 0.00 | 25 | 1018.7 |
| 20260501231228 | 13 | 146 | 6.4 | 8.0 | 0.00 | 0.00 | 0.00 | 25 | 1018.7 |
| 20260501230222 | 13 | 25 | 4.8 | 6.4 | 0.00 | 0.00 | 0.00 | 25 | 1018.7 |
| 20260501225228 | 13 | 196 | 3.2 | 4.8 | 0.00 | 0.00 | 0.00 | 27 | 1018.7 |
| 20260501224228 | 13 | 8 | 3.2 | 6.4 | 0.00 | 0.00 | 0.00 | 28 | 1018.6 |
| 20260501223216 | 13 | 329 | 4.8 | 8.0 | 0.00 | 0.00 | 0.00 | 28 | 1018.5 |
| 20260501222308 | 12 | 347 | 3.2 | 4.8 | 0.00 | 0.00 | 0.00 | 28 | 1018.7 |
| 20260501221242 | 13 | 29 | 4.8 | 6.4 | 0.00 | 0.00 | 0.00 | 27 | 1018.6 |
| 20260501220223 | 13 | 91 | 6.4 | 8.0 | 0.00 | 0.00 | 0.00 | 26 | 1018.6 |
| 20260501215223 | 13 | 146 | 8.0 | 12.9 | 0.00 | 0.00 | 0.00 | 27 | 1018.7 |
| 20260501214217 | 13 | 222 | 3.2 | 8.0 | 0.00 | 0.00 | 0.00 | 27 | 1018.9 |
| 20260501213237 | 13 | 124 | 6.4 | 9.7 | 0.00 | 0.00 | 0.00 | 28 | 1018.9 |
| 20260501212217 | 13 | 348 | 4.8 | 6.4 | 0.00 | 0.00 | 0.00 | 30 | 1019.1 |
| 20260501211218 | 12 | 112 | 4.8 | 8.0 | 0.00 | 0.00 | 0.00 | 30 | 1019.2 |
| 20260501210217 | 13 | 108 | 8.0 | 11.3 | 0.00 | 0.00 | 0.00 | 29 | 1019.3 |
| 20260501205218 | 13 | 113 | 8.0 | 12.9 | 0.00 | 0.00 | 0.00 | 30 | 1019.2 |
| 20260501204218 | 12 | 355 | 3.2 | 4.8 | 0.00 | 0.00 | 0.00 | 30 | 1019.3 |
| 20260501203218 | 13 | 14 | 6.4 | 9.7 | 0.00 | 0.00 | 0.00 | 31 | 1019.4 |
| 20260501202218 | 12 | 50 | 6.4 | 8.0 | 0.00 | 0.00 | 0.00 | 30 | 1019.3 |
| 20260501201219 | 13 | 131 | 6.4 | 11.3 | 0.00 | 0.00 | 0.00 | 29 | 1019.4 |
| 20260501200239 | 13 | 30 | 6.4 | 9.7 | 0.00 | 0.00 | 0.00 | 28 | 1019.4 |
| 20260501195219 | 12 | 14 | 3.2 | 6.4 | 0.00 | 0.00 | 0.00 | 30 | 1019.5 |
| 20260501194219 | 12 | 355 | 3.2 | 6.4 | 0.00 | 0.00 | 0.00 | 31 | 1019.6 |
| 20260501193219 | 12 | 81 | 1.6 | 1.6 | 0.00 | 0.00 | 0.00 | 32 | 1019.5 |
| 20260501192327 | 12 | 193 | 6.4 | 9.7 | 0.00 | 0.00 | 0.00 | 33 | 1019.5 |
| 20260501191327 | 12 | 14 | 6.4 | 9.7 | 0.00 | 0.00 | 0.00 | 32 | 1019.4 |
| 20260501190327 | 11 | 212 | 8.0 | 11.3 | 0.00 | 0.00 | 0.00 | 36 | 1019.6 |
| 20260501185347 | 11 | 160 | 8.0 | 12.9 | 0.00 | 0.00 | 0.00 | 36 | 1019.7 |
| 20260501184327 | 11 | 34 | 4.8 | 6.4 | 0.00 | 0.00 | 0.00 | 35 | 1019.7 |
| 20260501183324 | 11 | 11 | 4.8 | 12.9 | 0.00 | 0.00 | 0.00 | 36 | 1019.7 |
| 20260501182328 | 11 | 13 | 3.2 | 4.8 | 0.00 | 0.00 | 0.00 | 36 | 1019.8 |
| 20260501181328 | 11 | 192 | 8.0 | 11.3 | 0.00 | 0.00 | 0.00 | 38 | 1019.9 |
| 20260501180328 | 11 | 6 | 4.8 | 8.0 | 0.00 | 0.00 | 0.00 | 38 | 1020.0 |
| 20260501175329 | 11 | 123 | 4.8 | 8.0 | 0.00 | 0.00 | 0.00 | 37 | 1020.2 |
| 20260501174329 | 11 | 30 | 4.8 | 9.7 | 0.00 | 0.00 | 0.00 | 37 | 1020.2 |
| 20260501173354 | 11 | 199 | 6.4 | 11.3 | 0.00 | 0.00 | 0.00 | 38 | 1020.3 |
| 20260501172326 | 11 | 349 | 4.8 | 6.4 | 0.00 | 0.00 | 0.00 | 37 | 1020.4 |
| 20260501171329 | 10 | 183 | 4.8 | 6.4 | 0.00 | 0.00 | 0.00 | 38 | 1020.5 |
| 20260501170329 | 10 | 219 | 4.8 | 6.4 | 0.00 | 0.00 | 0.00 | 40 | 1020.5 |
| 20260501165323 | 10 | 147 | 6.4 | 9.7 | 0.00 | 0.00 | 0.00 | 39 | 1020.5 |
| 20260501164324 | 10 | 303 | 4.8 | 6.4 | 0.00 | 0.00 | 0.00 | 39 | 1020.6 |
| 20260501163329 | 10 | 23 | 3.2 | 6.4 | 0.00 | 0.00 | 0.00 | 40 | 1020.6 |
| 20260501162324 | 10 | 352 | 3.2 | 4.8 | 0.00 | 0.00 | 0.00 | 41 | 1020.6 |
| 20260501161324 | 9 | 25 | 3.2 | 4.8 | 0.00 | 0.00 | 0.00 | 42 | 1020.6 |
| 20260501160324 | 9 | 24 | 6.4 | 12.9 | 0.00 | 0.00 | 0.00 | 41 | 1020.5 |
| 20260501155329 | 9 | 19 | 8.0 | 12.9 | 0.00 | 0.00 | 0.00 | 41 | 1020.6 |
| 20260501154330 | 8 | 34 | 1.6 | 3.2 | 0.00 | 0.00 | 0.00 | 41 | 1020.5 |
| 20260501153330 | 8 | 30 | 8.0 | 9.7 | 0.00 | 0.00 | 0.00 | 41 | 1020.6 |
| 20260501152324 | 8 | 165 | 12.9 | 14.5 | 0.00 | 0.00 | 0.00 | 43 | 1020.6 |
| 20260501151325 | 8 | 138 | 6.4 | 12.9 | 0.00 | 0.00 | 0.00 | 46 | 1020.5 |
| 20260501150327 | 8 | 61 | 6.4 | 8.0 | 0.00 | 0.00 | 0.00 | 48 | 1020.7 |
| 20260501145325 | 7 | 52 | 4.8 | 8.0 | 0.00 | 0.00 | 0.00 | 51 | 1020.8 |
| 20260501144328 | 7 | 131 | 8.0 | 11.3 | 0.00 | 0.00 | 0.00 | 49 | 1020.7 |
| 20260501143324 | 7 | 124 | 4.8 | 8.0 | 0.00 | 0.00 | 0.00 | 52 | 1020.7 |
| 20260501142348 | 7 | 336 | 3.2 | 3.2 | 0.00 | 0.00 | 0.00 | 52 | 1020.8 |
| 20260501141325 | 6 | 350 | 3.2 | 6.4 | 0.00 | 0.00 | 0.00 | 53 | 1020.8 |
| 20260501140325 | 6 | 35 | 8.0 | 12.9 | 0.00 | 0.00 | 0.00 | 54 | 1020.8 |
| 20260501135346 | 5 | 151 | 4.8 | 6.4 | 0.00 | 0.00 | 0.00 | 60 | 1020.9 |
| 20260501134328 | 5 | 332 | 4.8 | 8.0 | 0.00 | 0.00 | 0.00 | 61 | 1020.8 |
| 20260501133329 | 4 | 193 | 3.2 | 3.2 | 0.00 | 0.00 | 0.00 | 65 | 1020.8 |
| 20260501132328 | 3 | 85 | 3.2 | 3.2 | 0.00 | 0.00 | 0.00 | 69 | 1020.7 |
| 20260501131329 | 2 | 88 | 1.6 | 1.6 | 0.00 | 0.00 | 0.00 | 72 | 1020.7 |
| 20260501130329 | 2 | 133 | 3.2 | 4.8 | 0.00 | 0.00 | 0.00 | 74 | 1020.6 |
| 20260501125329 | 2 | 164 | 3.2 | 3.2 | 0.00 | 0.00 | 0.00 | 75 | 1020.5 |
| 20260501124329 | 1 | 181 | 3.2 | 3.2 | 0.00 | 0.00 | 0.00 | 75 | 1020.4 |
| 20260501123349 | 1 | 291 | 1.6 | 3.2 | 0.00 | 0.00 | 0.00 | 77 | 1020.3 |
| 20260501122331 | 1 | 193 | 1.6 | 3.2 | 0.00 | 0.00 | 0.00 | 78 | 1020.3 |
| 20260501121330 | 1 | 213 | 1.6 | 3.2 | 0.00 | 0.00 | 0.00 | 77 | 1020.3 |
| 20260501120350 | 1 | 190 | 1.6 | 3.2 | 0.00 | 0.00 | 0.00 | 76 | 1020.2 |
| 20260501115330 | 1 | 232 | 1.6 | 3.2 | 0.00 | 0.00 | 0.00 | 77 | 1020.2 |
| 20260501114330 | 1 | 233 | 1.6 | 3.2 | 0.00 | 0.00 | 0.00 | 76 | 1020.2 |
| 20260501113330 | 1 | 192 | 3.2 | 4.8 | 0.00 | 0.00 | 0.00 | 77 | 1020.3 |